Location: Aydie
(43.5695°N, 0.1043°W)
Time: 11:36:07
(UTC+00:00)

Cosmos 841 Rocket - Pass Details

Date: 17 November 2025
Orbit: 742 x 768 km, 74.0° (Epoch: 11 December)

Event Time Altitude Azimuth Distance (km) Brightness Sun altitude
Rises 18:08:14 0° 345° (NNW) 3,246 6.8 -17.1°
Reaches altitude 10° 18:10:45 10° 353° (N) 2,317 6.0 -17.6°
Maximum altitude 18:15:43 41° 63° (ENE) 1,113 3.9 -18.4°
Enters shadow 18:17:15 33° 102° (ESE) 1,278 4.1 -18.7°
